TimeEST,TemperatureF,Dew PointF,Humidity,Sea Level PressureIn,VisibilityMPH,Wind Direction,Wind SpeedMPH,Gust SpeedMPH,PrecipitationIn,Events,Conditions,WindDirDegrees,DateUTC
12:53 AM,64.9,64.0,97,30.09,0.2,Calm,Calm,-,N/A,Fog,Fog,0,2013-01-03 05:53:00
1:53 AM,63.0,62.1,97,30.09,0.2,Calm,Calm,-,N/A,Fog,Fog,0,2013-01-03 06:53:00
3:53 AM,59.0,57.9,96,30.08,0.5,Calm,Calm,-,N/A,Fog,Fog,0,2013-01-03 08:53:00
4:53 AM,59.0,57.9,96,30.08,0.5,Calm,Calm,-,N/A,Fog,Fog,0,2013-01-03 09:53:00
5:53 AM,57.9,57.0,97,30.08,0.8,Calm,Calm,-,N/A,,Mist,0,2013-01-03 10:53:00
6:53 AM,57.9,57.9,100,30.10,0.2,Calm,Calm,-,N/A,Fog,Fog,0,2013-01-03 11:53:00
7:53 AM,60.1,60.1,100,30.12,0.2,Calm,Calm,-,N/A,Fog,Fog,0,2013-01-03 12:53:00
8:53 AM,64.0,63.0,96,30.13,0.5,Calm,Calm,-,0.01,Fog,Fog,0,2013-01-03 13:53:00
9:34 AM,66.2,64.4,94,30.14,1.8,ESE,4.6,-,N/A,,Overcast,110,2013-01-03 14:34:00
9:41 AM,66.2,64.4,94,30.14,2.0,ESE,4.6,-,N/A,,Overcast,120,2013-01-03 14:41:00
9:53 AM,68.0,66.9,96,30.14,6.0,ESE,6.9,-,N/A,,Mostly Cloudy,120,2013-01-03 14:53:00
10:05 AM,66.2,66.2,100,30.13,10.0,SE,6.9,-,N/A,,Scattered Clouds,130,2013-01-03 15:05:00
10:53 AM,73.9,64.9,73,30.13,10.0,SE,3.5,-,N/A,,Clear,140,2013-01-03 15:53:00
11:53 AM,79.0,64.9,62,30.10,10.0,SSE,9.2,-,N/A,,Clear,150,2013-01-03 16:53:00
12:53 PM,80.1,64.9,60,30.07,10.0,SSE,11.5,16.1,N/A,,Partly Cloudy,160,2013-01-03 17:53:00
1:53 PM,82.0,66.9,60,30.06,10.0,SW,11.5,-,N/A,,Mostly Cloudy,230,2013-01-03 18:53:00
2:53 PM,82.0,64.9,56,30.06,10.0,WSW,15.0,-,N/A,,Partly Cloudy,240,2013-01-03 19:53:00
3:53 PM,80.1,64.9,60,30.06,10.0,SW,9.2,-,N/A,,Clear,230,2013-01-03 20:53:00
4:53 PM,79.0,64.9,62,30.08,10.0,SSW,10.4,-,N/A,,Partly Cloudy,200,2013-01-03 21:53:00
5:53 PM,75.9,64.9,69,30.10,10.0,SSW,4.6,-,N/A,,Mostly Cloudy,210,2013-01-03 22:53:00
6:53 PM,73.9,66.0,76,30.11,10.0,SSW,5.8,-,N/A,,Overcast,200,2013-01-03 23:53:00
7:53 PM,73.0,66.9,81,30.12,10.0,South,4.6,-,N/A,,Overcast,180,2013-01-04 00:53:00
8:53 PM,72.0,66.9,84,30.14,10.0,Calm,Calm,-,N/A,,Overcast,0,2013-01-04 01:53:00
9:53 PM,72.0,66.9,84,30.15,10.0,North,5.8,-,N/A,,Overcast,10,2013-01-04 02:53:00
10:19 PM,71.6,66.2,83,30.16,10.0,North,8.1,-,N/A,,Overcast,10,2013-01-04 03:19:00
10:53 PM,71.1,66.0,84,30.16,10.0,NE,8.1,-,N/A,,Overcast,50,2013-01-04 03:53:00
11:53 PM,70.0,64.9,84,30.15,10.0,East,11.5,-,N/A,,Overcast,80,2013-01-04 04:53:00